Temperature
17 17 17 17 17 17 17 17 17 17 17 17 16 16 16 15 15 15 15 15 16 15 15 15 15 15 15 15 15 15 15 15 15 15 15 15 15 15
17 17 17 16 16 16 16 16 16 17 17 17 16 16 16 15 15 15 15 15 15 15 15 15 15 15 15 15 15 15 15 15 15 15 15 15 15 15
17 17 16 16 16 16 16 16 16 16 16 16 16 16 15 15 15 15 15 15 15 15 15 15 15 15 15 15 15 15 15 15 15 15 14 14 14 14
16 16 16 16 16 16 16 16 16 16 16 15 15 15 15 15 15 15 15 15 15 15 15 15 15 15 15 15 15 15 14 14 14 14 14 14 14 14
16 16 16 16 16 16 16 16 16 16 15 15 15 15 15 15 14 14 14 15 15 15 15 15 15 15 15 15 15 14 14 14 14 14 14 14 14 14
16 16 16 16 16 16 16 16 15 15 15 15 15 15 15 14 14 14 15 15 15 15 15 15 15 15 15 15 15 14 14 14 14 14 14 14 14 14
16 16 16 16 16 16 16 15 15 15 15 15 15 15 15 14 14 14 15 15 14 14 14 14 14 14 14 14 14 14 14 14 14 14 14 14 14 14
16 16 15 16 16 16 15 15 15 15 15 15 15 15 14 14 14 14 14 14 14 14 14 14 14 14 14 14 14 14 14 14 14 14 14 14 14 13
16 16 15 15 15 15 15 15 15 15 14 14 14 14 14 14 14 14 14 14 14 14 14 14 14 14 14 14 14 14 14 14 14 14 13 13 13 13
15 15 15 15 15 15 15 14 14 14 14 14 14 14 14 14 14 14 14 13 14 13 13 14 14 14 14 13 13 13 14 14 13 13 13 13 13 13
15 15 15 15 15 14 14 14 14 14 14 14 14 14 13 13 13 13 13 13 14 13 13 13 13 13 13 13 13 13 13 13 13 13 13 13 13 12
14 14 15 14 14 14 14 14 13 13 13 13 13 13 13 13 13 13 13 13 13 13 13 13 13 13 13 13 13 13 13 13 13 13 13 12 12 12
14 14 14 14 14 14 14 13 13 13 13 13 13 13 13 12 12 12 12 12 12 13 13 12 12 12 13 13 13 12 12 12 12 12 12 12 12 12
13 13 13 13 14 14 13 13 13 13 13 13 13 12 12 12 12 12 12 12 12 12 12 12 12 12 12 12 12 12 12 12 12 12 12 11 11 11
13 13 13 13 13 13 13 13 13 13 13 12 12 12 12 12 12 12 11 12 12 11 11 11 11 11 11 12 12 12 12 11 11 11 11 11 11 11
13 13 13 13 13 13 13 13 13 12 12 12 12 12 11 11 11 11 11 11 11 11 11 11 11 11 11 11 11 11 11 11 11 11 11 11 11 11
12 12 12 12 12 12 12 12 12 12 12 11 11 11 11 11 11 11 11 11 11 11 11 11 11 10 10 10 10 10 10 10 10 10 10 10 10 10
12 12 12 12 12 12 12 12 12 12 11 11 11 11 11 11 11 10 10 10 11 11 11 10 10 10 10 10 10 10 10 10 10 10 9 10 10 10
12 12 12 12 12 12 12 11 11 11 11 11 11 11 11 10 10 10 10 10 10 10 10 10 10 10 10 10 10 10 9 9 9 9 9 9 9 10
12 11 11 11 11 11 11 11 11 11 10 10 10 10 10 10 10 10 10 10 10 10 10 10 9 9 9 10 9 9 9 9 9 9 9 9 9 9
11 11 11 11 11 10 10 10 10 10 10 10 10 9 10 10 10 10 9 9 9 9 9 9 9 9 9 9 9 9 9 9 9 8 8 9 9 9
10 10 10 10 10 10 10 9 9 9 9 9 9 9 9 9 9 9 9 9 9 9 9 9 9 8 8 8 9 9 9 9 8 8 8 8 8 8
10 10 10 10 9 9 9 9 9 9 9 9 9 8 8 8 8 8 8 8 8 8 8 8 8 8 8 8 8 8 8 8 8 9 8 8 8 8
Wind_Speed
4 4 4 4 4 5 5 5 5 5 3 2 2 1 2 1 2 3 3 4 5 5 6 6 7 7 6 6 6 7 7 7 7 8 8 8 9 10
4 4 5 5 4 4 4 4 5 6 5 3 2 2 2 2 2 3 3 4 6 6 6 6 6 6 6 7 7 7 7 7 7 7 7 7 7 7
4 4 5 5 5 4 4 4 4 4 5 4 2 2 2 3 2 3 4 4 4 9 8 7 7 6 6 6 6 7 7 7 7 7 7 7 7 7
5 5 5 4 5 5 4 4 4 4 5 5 3 3 3 3 3 4 3 4 3 7 9 8 8 8 7 7 7 6 6 6 7 7 7 7 6 6
5 5 5 5 5 4 4 4 3 4 3 4 4 3 3 2 3 4 4 4 4 5 9 10 9 9 8 8 7 7 7 7 7 7 7 8 8 7
4 4 4 4 5 5 4 4 4 4 3 4 4 3 3 3 3 3 4 3 4 4 3 5 8 10 10 9 8 7 7 7 7 7 7 7 8 8
3 3 3 2 3 3 3 3 3 3 3 4 3 3 3 2 3 4 4 4 3 3 4 4 5 6 7 10 9 8 7 7 7 7 7 7 7 8
4 4 3 2 1 1 2 2 2 3 4 3 3 3 3 3 3 4 4 4 4 2 3 4 4 4 4 4 7 9 8 8 7 7 7 7 7 8
3 3 3 2 2 2 2 3 1 2 3 4 3 3 3 3 4 5 4 5 4 4 4 4 3 4 4 2 7 9 9 8 8 8 7 7 8 8
3 3 3 2 2 2 2 2 2 2 3 3 3 4 3 3 4 5 5 5 5 4 4 5 4 4 3 2 7 9 9 9 9 9 8 8 9 9
3 3 3 3 1 2 3 3 3 3 2 2 2 2 2 2 4 4 4 5 5 3 3 4 4 4 4 3 4 9 9 9 9 9 9 9 9 10
2 2 2 2 1 2 3 3 4 4 3 3 3 4 4 4 4 5 5 5 5 4 2 3 4 4 4 3 2 3 5 7 9 9 9 9 9 8
2 2 2 3 2 2 4 4 5 5 4 5 4 4 4 3 4 4 4 5 5 4 2 3 4 4 5 4 3 3 3 2 4 5 8 10 10 8
3 2 1 2 3 4 4 4 5 6 4 4 4 4 4 4 3 3 3 4 5 5 4 4 5 4 5 5 4 3 3 3 4 4 4 6 9 11
2 2 3 4 4 4 4 5 5 4 3 4 4 4 4 4 4 3 4 4 5 5 4 4 5 5 6 6 5 5 5 4 4 4 4 4 4 4
2 2 4 6 4 2 3 3 3 3 4 4 4 4 4 3 4 3 4 3 4 3 3 4 4 5 6 6 6 5 5 4 4 4 4 5 5 5
2 2 2 2 2 2 2 2 2 3 4 4 4 4 4 4 3 3 3 4 4 4 3 2 3 3 4 5 5 5 5 5 4 3 4 5 5 5
3 3 3 3 3 3 2 2 2 3 3 3 4 4 4 4 3 3 3 4 5 4 4 3 2 3 4 3 3 5 5 5 4 4 6 6 6 5
4 3 3 3 3 3 3 3 3 2 3 3 3 4 4 4 3 3 4 4 4 4 4 3 3 4 6 6 3 4 6 5 6 6 6 6 7 6
3 3 3 3 3 3 3 3 3 2 3 3 3 4 4 4 4 4 4 4 4 4 4 4 4 5 6 7 6 5 5 6 6 7 7 6 6 5
2 2 2 2 2 2 2 3 3 3 3 3 3 4 4 4 4 4 4 3 5 5 5 4 3 5 6 6 6 6 4 5 5 6 7 7 7 7
2 2 2 2 2 2 2 3 3 3 3 3 3 3 3 4 4 4 4 4 4 5 6 5 4 5 6 6 7 7 7 5 5 8 9 9 7 8
2 2 2 1 2 2 2 3 3 3 3 3 3 3 3 4 4 4 4 4 4 5 5 6 5 5 6 6 7 7 8 8 6 5 6 8 11 11
Wind_Direction
249 244 257 266 263 267 265 261 265 270 272 243 253 260 261 250 183 243 247 185 207 225 226 227 226 225 226 229 230 228 228 226 225 224 224 226 227 230
262 272 273 273 273 269 264 266 266 268 269 262 264 277 302 272 195 244 250 187 204 212 220 226 227 228 228 228 231 230 228 227 225 226 227 225 225 230
257 257 261 280 280 277 264 261 260 257 257 268 263 256 269 280 268 252 244 234 212 193 203 214 220 222 224 225 227 229 226 223 222 224 226 228 231 232
256 259 263 264 265 272 269 262 263 262 253 259 262 258 246 254 272 269 263 255 244 177 192 205 212 217 219 217 221 221 219 220 223 224 223 225 229 230
259 258 260 266 267 268 268 267 266 256 247 244 253 261 256 250 257 259 267 269 262 195 190 200 205 212 215 211 213 215 217 221 223 221 222 225 226 227
257 259 261 267 269 266 261 266 269 265 250 246 250 248 245 241 258 263 262 246 267 254 217 199 195 205 209 207 209 212 213 212 215 220 225 227 229 231
251 255 259 281 300 291 282 272 267 264 255 250 251 255 256 257 263 269 272 276 257 257 253 227 205 213 206 206 205 204 206 210 216 220 224 227 230 232
244 249 249 241 249 263 305 317 300 263 264 262 259 253 266 266 275 275 280 280 275 252 262 262 241 236 224 219 179 189 204 212 216 221 225 228 231 233
235 239 250 249 220 240 220 210 239 280 267 256 258 268 259 269 275 270 277 284 286 290 274 268 265 255 239 199 164 186 202 212 220 224 228 230 233 234
240 236 242 259 269 263 245 236 238 242 240 236 239 260 272 281 268 265 271 264 255 261 266 267 267 266 262 215 172 187 203 214 220 224 227 230 234 235
239 236 232 231 281 265 233 234 238 237 211 200 214 227 267 284 287 273 273 267 263 252 248 263 275 273 267 256 199 187 198 210 216 220 225 231 238 239
233 228 200 216 240 268 242 244 248 253 250 231 216 222 230 227 229 253 265 269 272 264 266 269 275 279 272 257 261 226 214 210 213 215 218 224 229 241
237 238 228 151 187 245 265 263 268 266 250 247 242 243 239 236 236 236 255 269 274 266 266 256 270 269 270 273 270 272 275 264 227 224 216 216 219 231
242 247 241 168 211 231 251 265 265 267 255 254 256 259 260 258 254 252 252 259 272 273 285 278 268 272 273 275 275 277 273 279 279 272 258 210 216 221
250 241 247 223 225 228 219 230 239 249 254 253 254 260 262 263 263 249 242 237 244 255 258 261 268 270 268 271 276 279 278 278 274 275 277 267 253 243
236 210 208 216 224 231 228 229 243 250 253 256 262 264 265 263 260 262 257 248 249 241 228 242 261 268 268 272 274 277 281 281 283 285 282 276 270 261
250 245 255 262 250 239 243 247 248 247 244 251 259 262 260 256 256 260 264 261 263 268 261 233 241 251 266 277 274 278 280 281 286 299 285 277 276 271
239 245 247 248 253 253 257 261 259 258 260 264 261 259 259 257 260 261 257 260 265 268 268 272 268 260 257 252 265 275 280 285 288 285 277 275 278 278
235 245 250 252 256 258 264 276 278 284 286 276 269 263 260 260 260 265 270 271 270 273 272 270 266 267 271 271 255 251 281 289 287 284 280 278 279 282
246 259 262 262 269 272 272 274 280 280 278 279 276 274 273 270 269 270 269 275 277 276 275 273 271 272 274 282 283 276 246 268 278 282 285 283 281 273
260 270 277 279 284 287 284 286 284 280 289 284 276 278 278 276 276 278 281 283 277 276 278 280 287 271 273 277 274 272 268 227 246 272 286 287 287 282
259 270 283 293 289 283 284 285 283 282 285 281 289 287 289 288 287 287 288 287 280 280 283 284 278 266 266 269 274 278 279 276 238 231 250 261 277 284
249 256 257 256 251 247 265 276 282 288 294 297 300 302 305 309 304 294 290 286 287 291 292 291 287 275 271 269 272 278 282 283 282 272 259 225 223 240
Height
1532 1531 1531 1531 1530 1529 1529 1528 1528 1526 1526 1526 1526 1525 1524 1524 1523 1522 1521 1520 1520 1520 1520 1520 1520 1520 1520 1520 1520 1521 1521 1522 1522 1523 1523 1524 1524 1524
1529 1528 1528 1528 1527 1526 1526 1525 1525 1524 1523 1523 1523 1523 1522 1521 1520 1520 1519 1518 1518 1518 1517 1517 1517 1517 1517 1517 1518 1518 1519 1519 1519 1520 1520 1521 1521 1521
1526 1526 1525 1524 1524 1524 1523 1522 1521 1521 1521 1521 1521 1520 1518 1518 1518 1517 1517 1516 1515 1515 1514 1514 1515 1515 1515 1514 1515 1515 1516 1516 1516 1517 1517 1518 1518 1518
1523 1523 1522 1522 1521 1521 1520 1519 1518 1518 1518 1517 1517 1517 1516 1516 1515 1515 1515 1515 1514 1512 1512 1512 1512 1512 1512 1512 1512 1512 1513 1513 1513 1514 1514 1515 1515 1515
1521 1520 1519 1519 1518 1517 1517 1516 1515 1515 1515 1515 1515 1515 1514 1514 1513 1513 1513 1512 1512 1510 1509 1509 1509 1509 1509 1509 1509 1509 1510 1510 1510 1511 1511 1512 1512 1512
1517 1517 1516 1515 1515 1514 1514 1513 1513 1513 1513 1513 1512 1512 1512 1512 1511 1511 1511 1510 1509 1509 1507 1506 1506 1506 1506 1506 1506 1506 1507 1507 1507 1508 1508 1508 1508 1509
1514 1514 1513 1512 1512 1511 1511 1511 1510 1510 1510 1510 1510 1510 1510 1510 1509 1509 1509 1508 1507 1506 1505 1505 1504 1503 1503 1502 1502 1503 1503 1504 1504 1505 1505 1505 1505 1505
1511 1511 1510 1509 1509 1508 1508 1508 1508 1508 1508 1507 1507 1507 1507 1507 1507 1506 1506 1506 1505 1504 1503 1503 1502 1501 1501 1500 1500 1500 1500 1501 1501 1501 1502 1502 1502 1502
1508 1507 1507 1507 1506 1506 1506 1505 1505 1505 1505 1505 1505 1504 1504 1504 1504 1503 1503 1503 1502 1502 1500 1500 1500 1499 1498 1498 1497 1497 1497 1497 1497 1497 1498 1498 1498 1498
1505 1504 1504 1504 1504 1503 1503 1503 1502 1502 1502 1502 1502 1501 1502 1501 1501 1501 1500 1499 1498 1498 1497 1497 1496 1496 1495 1494 1493 1493 1493 1494 1494 1494 1494 1494 1494 1494
1502 1501 1501 1501 1501 1501 1501 1500 1500 1500 1500 1499 1499 1498 1498 1498 1498 1498 1497 1497 1496 1496 1495 1494 1493 1493 1492 1492 1491 1490 1489 1489 1489 1489 1490 1490 1490 1490
1499 1499 1498 1498 1498 1498 1498 1498 1498 1497 1497 1497 1496 1496 1495 1495 1494 1494 1494 1494 1494 1493 1492 1491 1491 1491 1490 1489 1489 1487 1486 1485 1485 1485 1485 1485 1485 1486
1496 1496 1495 1495 1495 1495 1495 1495 1495 1495 1495 1495 1494 1493 1493 1492 1491 1491 1490 1491 1491 1490 1489 1488 1488 1488 1488 1487 1486 1485 1484 1483 1482 1481 1481 1481 1481 1481
1493 1493 1493 1492 1492 1492 1492 1492 1492 1492 1492 1492 1491 1490 1490 1489 1489 1488 1487 1487 1486 1486 1485 1485 1485 1485 1485 1484 1483 1482 1482 1481 1480 1479 1479 1478 1477 1477
1490 1490 1490 1490 1489 1489 1489 1488 1488 1488 1488 1488 1488 1487 1487 1486 1485 1484 1484 1483 1482 1482 1482 1481 1481 1482 1481 1481 1480 1479 1479 1478 1477 1476 1475 1475 1474 1474
1487 1487 1487 1487 1486 1486 1486 1485 1485 1485 1485 1485 1484 1484 1483 1483 1482 1481 1481 1480 1480 1479 1478 1478 1477 1478 1478 1478 1477 1476 1476 1475 1474 1473 1472 1472 1471 1470
1483 1484 1484 1485 1484 1484 1483 1483 1482 1482 1481 1481 1481 1480 1480 1479 1479 1478 1477 1477 1477 1476 1476 1475 1474 1474 1474 1474 1474 1473 1473 1472 1471 1469 1468 1468 1467 1466
1481 1481 1481 1481 1481 1481 1481 1480 1479 1479 1479 1478 1478 1477 1477 1476 1475 1475 1474 1474 1473 1473 1473 1472 1472 1471 1471 1470 1470 1469 1469 1468 1467 1466 1465 1464 1463 1463
1479 1478 1478 1478 1478 1478 1478 1477 1477 1477 1476 1476 1475 1475 1474 1473 1472 1472 1471 1471 1470 1470 1469 1469 1469 1468 1468 1467 1466 1466 1465 1464 1463 1462 1462 1460 1459 1458
1476 1476 1476 1475 1475 1475 1475 1475 1474 1474 1473 1473 1473 1472 1471 1470 1469 1469 1468 1467 1467 1467 1466 1466 1466 1465 1464 1464 1462 1462 1461 1460 1459 1458 1457 1456 1455 1454
1473 1473 1473 1473 1473 1473 1472 1472 1471 1470 1470 1470 1469 1468 1468 1467 1466 1466 1465 1464 1464 1463 1463 1462 1462 1461 1461 1460 1459 1458 1457 1456 1454 1453 1453 1452 1450 1449
1471 1471 1471 1470 1470 1470 1470 1470 1470 1469 1467 1467 1466 1466 1465 1464 1463 1462 1462 1461 1461 1460 1460 1459 1458 1458 1457 1456 1454 1453 1452 1451 1450 1448 1447 1447 1446 1444
1468 1468 1468 1468 1468 1468 1467 1467 1467 1466 1465 1464 1464 1463 1462 1461 1461 1460 1459 1458 1458 1457 1457 1456 1455 1454 1453 1452 1451 1449 1448 1447 1446 1444 1443 1441 1441 1439